,,,PA_Meas_PMT16A,,PR_Meas_QMR101_102,,RH_Meas_QMH101,,SR_Meas_QMS101,,TA_Meas_QMH101,,GenWind,,GenWind,
date,time,status,PA,status,PR,status,RH,status,SR,status,TA,status,DirAvg,status,SpdAvg,
2009-02-19, 00:00:04,VALID,1004.12,VALID,0,VALID,83.3684,VALID,0,VALID,25.6311,VALID,340,VALID,0.417969,
2009-02-19, 00:01:04,VALID,1004.06,VALID,0,VALID,83.2082,VALID,0,VALID,25.6506,VALID,315,VALID,0.593359,
2009-02-19, 00:02:04,VALID,1004.08,VALID,0,VALID,83.1319,VALID,0,VALID,25.6097,VALID,343,VALID,0.599609,
2009-02-19, 00:03:04,VALID,1004.07,VALID,0,VALID,82.9946,VALID,0,VALID,25.6097,VALID,346,VALID,1.28281,
2009-02-19, 00:04:04,VALID,1004.04,VALID,0,VALID,83.1014,VALID,0,VALID,25.6292,VALID,331,VALID,0.769141,
2009-02-19, 00:05:04,VALID,1004.02,VALID,0,VALID,83.0251,VALID,0,VALID,25.6486,VALID,305,VALID,0.364453,
2009-02-19, 00:06:04,VALID,1004,VALID,0,VALID,82.9259,VALID,0,VALID,25.6681,VALID,343,VALID,0.796094,
2009-02-19, 00:07:04,VALID,1003.99,VALID,0,VALID,83.1243,VALID,0,VALID,25.6681,VALID,323,VALID,0.25,
2009-02-19, 00:08:04,VALID,1003.97,VALID,0,VALID,83.3989,VALID,0,VALID,25.67,VALID,359,VALID,0.133594,
2009-02-19, 00:09:04,VALID,1003.93,VALID,0,VALID,83.1777,VALID,0,VALID,25.67,VALID,353,VALID,0.533984,
2009-02-19, 00:10:04,VALID,1003.91,VALID,0,VALID,83.1624,VALID,0,VALID,25.6506,VALID,344,VALID,0.165625,
2009-02-19, 00:11:04,VALID,1003.89,VALID,0,VALID,83.254,VALID,0,VALID,25.6486,VALID,330,VALID,0.204297,
2009-02-19, 00:12:04,VALID,1003.85,VALID,0,VALID,83.4065,VALID,0,VALID,25.67,VALID,330,VALID,0.150781,
2009-02-19, 00:13:04,VALID,1003.8,VALID,0,VALID,83.4523,VALID,0,VALID,25.6506,VALID,330,VALID,0.0539063,
2009-02-19, 00:14:04,VALID,1003.78,VALID,0,VALID,83.3379,VALID,0,VALID,25.6506,VALID,332,VALID,0.443359,
2009-02-19, 00:15:04,VALID,1003.78,VALID,0,VALID,83.4981,VALID,0,VALID,25.6311,VALID,335,VALID,0.112891,
2009-02-19, 00:16:04,VALID,1003.76,VALID,0,VALID,83.6583,VALID,0,VALID,25.6116,VALID,341,VALID,0.151953,
2009-02-19, 00:17:04,VALID,1003.73,VALID,0,VALID,83.6049,VALID,0,VALID,25.5707,VALID,355,VALID,0.63125,
2009-02-19, 00:18:04,VALID,1003.72,VALID,0,VALID,83.7193,VALID,0,VALID,25.5513,VALID,323,VALID,0.336719,
2009-02-19, 00:19:04,VALID,1003.7,VALID,0,VALID,83.8109,VALID,0,VALID,25.5727,VALID,345,VALID,0.300391,
2009-02-19, 00:20:04,VALID,1003.73,VALID,0,VALID,83.8185,VALID,0,VALID,25.5532,VALID,346,VALID,0.761328,
2009-02-19, 00:21:04,VALID,1003.7,VALID,0,VALID,83.7575,VALID,0,VALID,25.5532,VALID,352,VALID,0.853516,
2009-02-19, 00:22:04,VALID,1003.67,VALID,0,VALID,83.8338,VALID,0,VALID,25.5337,VALID,346,VALID,0.691406,
2009-02-19, 00:23:04,VALID,1003.69,VALID,0,VALID,83.8109,VALID,0,VALID,25.5142,VALID,338,VALID,0.838672,
2009-02-19, 00:24:04,VALID,1003.67,VALID,0,VALID,83.8261,VALID,0,VALID,25.5142,VALID,345,VALID,0.760547,
2009-02-19, 00:25:04,VALID,1003.69,VALID,0,VALID,83.8567,VALID,0,VALID,25.5142,VALID,345,VALID,0.85625,
2009-02-19, 00:26:04,VALID,1003.67,VALID,0,VALID,83.8719,VALID,0,VALID,25.5357,VALID,345,VALID,0.939844,
2009-02-19, 00:27:04,VALID,1003.66,VALID,0,VALID,83.9863,VALID,0,VALID,25.4928,VALID,360,VALID,0.617969,
2009-02-19, 00:28:04,VALID,1003.66,VALID,0,VALID,83.994,VALID,0,VALID,25.4948,VALID,343,VALID,0.655469,
2009-02-19, 00:29:04,VALID,1003.63,VALID,0,VALID,84.2228,VALID,0,VALID,25.4734,VALID,353,VALID,0.328125,
2009-02-19, 00:30:04,VALID,1003.64,VALID,0,VALID,84.0092,VALID,0,VALID,25.4948,VALID,343,VALID,0.646484,
2009-02-19, 00:31:04,VALID,1003.61,VALID,0,VALID,84.0779,VALID,0,VALID,25.4734,VALID,291,VALID,0.412891,
2009-02-19, 00:32:04,VALID,1003.6,VALID,0,VALID,83.9101,VALID,0,VALID,25.5142,VALID,351,VALID,0.791016,
2009-02-19, 00:33:04,VALID,1003.59,VALID,0,VALID,83.849,VALID,0,VALID,25.5337,VALID,355,VALID,0.628906,
2009-02-19, 00:34:04,VALID,1003.58,VALID,0,VALID,83.6354,VALID,0,VALID,25.5337,VALID,335,VALID,0.669922,
2009-02-19, 00:35:04,VALID,1003.57,VALID,0,VALID,83.5286,VALID,0,VALID,25.5727,VALID,3,VALID,0.743359,
2009-02-19, 00:36:04,VALID,1003.57,VALID,0,VALID,83.2769,VALID,0,VALID,25.5707,VALID,341,VALID,1.1082,
2009-02-19, 00:37:04,VALID,1003.57,VALID,0,VALID,83.3455,VALID,0,VALID,25.5921,VALID,341,VALID,0.339453,
2009-02-19, 00:38:04,VALID,1003.57,VALID,0,VALID,83.2921,VALID,0,VALID,25.6116,VALID,342,VALID,0.519141,
2009-02-19, 00:39:04,VALID,1003.59,VALID,0,VALID,83.2616,VALID,0,VALID,25.5921,VALID,353,VALID,0.741016,
2009-02-19, 00:40:04,VALID,1003.59,VALID,0,VALID,83.048,VALID,0,VALID,25.5707,VALID,360,VALID,0.517187,
2009-02-19, 00:41:04,VALID,1003.59,VALID,0,VALID,83.0861,VALID,0,VALID,25.5921,VALID,354,VALID,0.567969,
2009-02-19, 00:42:04,VALID,1003.57,VALID,0,VALID,83.2235,VALID,0,VALID,25.5921,VALID,350,VALID,0.377734,
2009-02-19, 00:43:04,VALID,1003.55,VALID,0,VALID,82.9107,VALID,0,VALID,25.5707,VALID,355,VALID,0.335938,
2009-02-19, 00:44:04,VALID,1003.58,VALID,0,VALID,82.7886,VALID,0,VALID,25.5902,VALID,339,VALID,0.420312,
2009-02-19, 00:45:04,VALID,1003.56,VALID,0,VALID,82.8725,VALID,0,VALID,25.6311,VALID,328,VALID,0.353125,
2009-02-19, 00:46:04,VALID,1003.54,VALID,0,VALID,82.9564,VALID,0,VALID,25.6311,VALID,324,VALID,0.1875,
2009-02-19, 00:47:04,VALID,1003.51,VALID,0,VALID,82.6665,VALID,0,VALID,25.6097,VALID,345,VALID,0.628516,
2009-02-19, 00:48:04,VALID,1003.49,VALID,0,VALID,82.6818,VALID,0,VALID,25.6097,VALID,354,VALID,0.856641,
2009-02-19, 00:49:04,VALID,1003.5,VALID,0,VALID,82.7734,VALID,0,VALID,25.6292,VALID,351,VALID,0.425,
2009-02-19, 00:50:04,VALID,1003.47,VALID,0,VALID,82.7352,VALID,0,VALID,25.6292,VALID,353,VALID,0.510547,
2009-02-19, 00:51:04,VALID,1003.45,VALID,0,VALID,82.6208,VALID,0,VALID,25.6506,VALID,268,VALID,0.535156,
2009-02-19, 00:52:04,VALID,1003.43,VALID,0,VALID,82.4606,VALID,0,VALID,25.67,VALID,340,VALID,0.983203,
2009-02-19, 00:53:04,VALID,1003.42,VALID,0,VALID,82.5826,VALID,0,VALID,25.67,VALID,338,VALID,0.151172,
2009-02-19, 00:54:04,VALID,1003.42,VALID,0,VALID,82.7199,VALID,0,VALID,25.67,VALID,338,VALID,0,
2009-02-19, 00:55:04,VALID,1003.38,VALID,0,VALID,82.3919,VALID,0,VALID,25.6681,VALID,333,VALID,0.514453,
2009-02-19, 00:56:04,VALID,1003.37,VALID,0,VALID,82.3461,VALID,0,VALID,25.67,VALID,353,VALID,1.11016,
2009-02-19, 00:57:04,VALID,1003.38,VALID,0,VALID,82.5216,VALID,0,VALID,25.6486,VALID,8,VALID,0.680859,
2009-02-19, 00:58:04,VALID,1003.37,VALID,0,VALID,82.4911,VALID,0,VALID,25.6506,VALID,358,VALID,0.8125,
2009-02-19, 00:59:04,VALID,1003.39,VALID,0,VALID,82.4987,VALID,0,VALID,25.6311,VALID,351,VALID,0.992188,
2009-02-19, 01:00:04,VALID,1003.38,VALID,0,VALID,82.4529,VALID,0,VALID,25.6116,VALID,341,VALID,1.05703,
2009-02-19, 01:01:04,VALID,1003.38,VALID,0,VALID,82.575,VALID,0,VALID,25.6116,VALID,357,VALID,0.759766,
2009-02-19, 01:02:04,VALID,1003.39,VALID,0,VALID,82.6971,VALID,0,VALID,25.5707,VALID,354,VALID,0.767969,
2009-02-19, 01:03:04,VALID,1003.37,VALID,0,VALID,82.7047,VALID,0,VALID,25.5727,VALID,310,VALID,0.787891,
2009-02-19, 01:04:04,VALID,1003.36,VALID,0,VALID,82.7886,VALID,0,VALID,25.5532,VALID,347,VALID,0.907031,
2009-02-19, 01:05:04,VALID,1003.33,VALID,0,VALID,82.7886,VALID,0,VALID,25.5337,VALID,331,VALID,0.84375,
2009-02-19, 01:06:04,VALID,1003.34,VALID,0,VALID,82.7199,VALID,0,VALID,25.5337,VALID,357,VALID,1.22617,
2009-02-19, 01:07:04,VALID,1003.3,VALID,0,VALID,82.9641,VALID,0,VALID,25.5337,VALID,329,VALID,0.623047,
2009-02-19, 01:08:04,VALID,1003.32,VALID,0,VALID,82.9183,VALID,0,VALID,25.5142,VALID,346,VALID,0.980469,
2009-02-19, 01:09:04,VALID,1003.29,VALID,0,VALID,83.1319,VALID,0,VALID,25.4948,VALID,31,VALID,0.380859,
2009-02-19, 01:10:04,VALID,1003.29,VALID,0,VALID,83.1929,VALID,0,VALID,25.4753,VALID,360,VALID,0.992578,
2009-02-19, 01:11:04,VALID,1003.26,VALID,0,VALID,83.3531,VALID,0,VALID,25.4558,VALID,355,VALID,0.532031,
2009-02-19, 01:12:04,VALID,1003.27,VALID,0,VALID,83.3684,VALID,0,VALID,25.4558,VALID,353,VALID,0.891406,
2009-02-19, 01:13:04,VALID,1003.27,VALID,0,VALID,83.6964,VALID,0,VALID,25.4169,VALID,359,VALID,0.736719,
2009-02-19, 01:14:04,VALID,1003.27,VALID,0,VALID,83.6659,VALID,0,VALID,25.3974,VALID,357,VALID,0.755469,
2009-02-19, 01:15:04,VALID,1003.26,VALID,0,VALID,83.7727,VALID,0,VALID,25.3584,VALID,353,VALID,0.786719,
2009-02-19, 01:16:04,VALID,1003.24,VALID,0,VALID,83.9711,VALID,0,VALID,25.2981,VALID,351,VALID,0.758984,
2009-02-19, 01:17:04,VALID,1003.22,VALID,0,VALID,84.3068,VALID,0,VALID,25.3,VALID,346,VALID,0.582812,
2009-02-19, 01:18:04,VALID,1003.22,VALID,0,VALID,84.4517,VALID,0,VALID,25.2416,VALID,344,VALID,0.726953,
2009-02-19, 01:19:04,VALID,1003.2,VALID,0,VALID,84.6806,VALID,0,VALID,25.2202,VALID,347,VALID,0.609766,
2009-02-19, 01:20:04,VALID,1003.18,VALID,0,VALID,84.7492,VALID,0,VALID,25.2027,VALID,354,VALID,0.723047,
2009-02-19, 01:21:04,VALID,1003.14,VALID,0,VALID,84.9018,VALID,0,VALID,25.1832,VALID,349,VALID,0.816406,
2009-02-19, 01:22:04,VALID,1003.11,VALID,0,VALID,84.9934,VALID,0,VALID,25.1637,VALID,347,VALID,0.736328,
2009-02-19, 01:23:04,VALID,1003.11,VALID,0,VALID,85.0849,VALID,0,VALID,25.1637,VALID,340,VALID,0.389062,
2009-02-19, 01:24:04,VALID,1003.07,VALID,0,VALID,85.2527,VALID,0,VALID,25.1851,VALID,3,VALID,0.532031,
2009-02-19, 01:25:04,VALID,1003.09,VALID,0,VALID,85.3443,VALID,0,VALID,25.1637,VALID,13,VALID,0.507422,
2009-02-19, 01:26:04,VALID,1003.08,VALID,0,VALID,85.3061,VALID,0,VALID,25.1832,VALID,313,VALID,0.651563,
2009-02-19, 01:27:04,VALID,1003.06,VALID,0,VALID,85.2604,VALID,0,VALID,25.1637,VALID,351,VALID,1.07617,
2009-02-19, 01:28:04,VALID,1003.05,VALID,0,VALID,85.2527,VALID,0,VALID,25.1618,VALID,347,VALID,0.614453,
2009-02-19, 01:29:04,VALID,1003.02,VALID,0,VALID,85.1765,VALID,0,VALID,25.2027,VALID,348,VALID,0.670703,
2009-02-19, 01:30:04,VALID,1003.01,VALID,0,VALID,85.1002,VALID,0,VALID,25.2221,VALID,356,VALID,1.03086,
2009-02-19, 01:31:04,VALID,1002.99,VALID,0,VALID,85.1383,VALID,0,VALID,25.2221,VALID,342,VALID,0.933594,
2009-02-19, 01:32:04,VALID,1002.98,VALID,0,VALID,85.0696,VALID,0,VALID,25.2611,VALID,348,VALID,0.378125,
2009-02-19, 01:33:04,VALID,1002.98,VALID,0,VALID,85.1383,VALID,0,VALID,25.2611,VALID,327,VALID,0.941797,
2009-02-19, 01:34:04,VALID,1002.96,VALID,0,VALID,85.1841,VALID,0,VALID,25.2416,VALID,345,VALID,0.8625,
2009-02-19, 01:35:04,VALID,1002.98,VALID,0,VALID,85.2451,VALID,0,VALID,25.2416,VALID,334,VALID,0.301172,
2009-02-19, 01:36:04,VALID,1002.95,VALID,0,VALID,85.2909,VALID,0,VALID,25.2007,VALID,343,VALID,0.573047,
2009-02-19, 01:37:04,VALID,1002.93,VALID,0,VALID,85.3443,VALID,0,VALID,25.2202,VALID,339,VALID,0.276953,
2009-02-19, 01:38:04,VALID,1002.98,VALID,0,VALID,85.3824,VALID,0,VALID,25.2611,VALID,343,VALID,0.43125,
2009-02-19, 01:39:04,VALID,1002.93,VALID,0,VALID,85.4511,VALID,0,VALID,25.2007,VALID,358,VALID,0.510938,
2009-02-19, 01:40:04,VALID,1002.94,VALID,0,VALID,85.4282,VALID,0,VALID,25.2221,VALID,335,VALID,0.870313,
2009-02-19, 01:41:04,VALID,1002.95,VALID,0,VALID,85.5655,VALID,0,VALID,25.2221,VALID,353,VALID,0.735156,
2009-02-19, 01:42:04,VALID,1002.95,VALID,0,VALID,85.5579,VALID,0,VALID,25.2027,VALID,355,VALID,0.801953,
2009-02-19, 01:43:04,VALID,1002.96,VALID,0,VALID,85.5732,VALID,0,VALID,25.2221,VALID,349,VALID,0.647266,
2009-02-19, 01:44:04,VALID,1002.93,VALID,0,VALID,85.6342,VALID,0,VALID,25.1618,VALID,344,VALID,0.503516,
2009-02-19, 01:45:04,VALID,1002.96,VALID,0,VALID,85.6876,VALID,0,VALID,25.2027,VALID,347,VALID,0.716797,
2009-02-19, 01:46:04,VALID,1002.96,VALID,0,VALID,85.8249,VALID,0,VALID,25.1618,VALID,306,VALID,0.410547,
2009-02-19, 01:47:04,VALID,1002.97,VALID,0,VALID,85.7715,VALID,0,VALID,25.1813,VALID,347,VALID,0.93125,
2009-02-19, 01:48:04,VALID,1002.98,VALID,0,VALID,85.7868,VALID,0,VALID,25.1832,VALID,1,VALID,0.198047,
2009-02-19, 01:49:04,VALID,1002.97,VALID,0,VALID,85.8249,VALID,0,VALID,25.1832,VALID,343,VALID,0.620703,
2009-02-19, 01:50:04,VALID,1002.96,VALID,0,VALID,85.802,VALID,0,VALID,25.1832,VALID,344,VALID,1.05,
2009-02-19, 01:51:04,VALID,1002.95,VALID,0,VALID,85.8936,VALID,0,VALID,25.2221,VALID,1,VALID,0.0351563,
2009-02-19, 01:52:04,VALID,1002.93,VALID,0,VALID,85.8707,VALID,0,VALID,25.2027,VALID,5,VALID,0.392188,
2009-02-19, 01:53:04,VALID,1002.95,VALID,0,VALID,85.8402,VALID,0,VALID,25.2027,VALID,352,VALID,0.294141,
2009-02-19, 01:54:04,VALID,1002.94,VALID,0,VALID,85.8478,VALID,0,VALID,25.2027,VALID,10,VALID,0.911328,
2009-02-19, 01:55:04,VALID,1002.91,VALID,0,VALID,85.8325,VALID,0,VALID,25.1813,VALID,357,VALID,0.398828,
2009-02-19, 01:56:04,VALID,1002.91,VALID,0,VALID,85.7944,VALID,0,VALID,25.2221,VALID,318,VALID,0.485938,
2009-02-19, 01:57:04,VALID,1002.9,VALID,0,VALID,85.7105,VALID,0,VALID,25.2435,VALID,310,VALID,0.414453,
2009-02-19, 01:58:04,VALID,1002.86,VALID,0,VALID,85.7562,VALID,0,VALID,25.2416,VALID,14,VALID,0.499609,
2009-02-19, 01:59:04,VALID,1002.85,VALID,0,VALID,85.6418,VALID,0,VALID,25.2416,VALID,317,VALID,0.557813,
2009-02-19, 02:00:04,VALID,1002.82,VALID,0,VALID,85.3901,VALID,0,VALID,25.2611,VALID,311,VALID,0.365625,
2009-02-19, 02:01:04,VALID,1002.81,VALID,0,VALID,84.9781,VALID,0,VALID,25.2806,VALID,345,VALID,0.861328,
2009-02-19, 02:02:04,VALID,1002.82,VALID,0,VALID,84.9094,VALID,0,VALID,25.3195,VALID,11,VALID,0.462109,
2009-02-19, 02:03:04,VALID,1002.81,VALID,0,VALID,84.4746,VALID,0,VALID,25.339,VALID,315,VALID,0.913672,
2009-02-19, 02:04:04,VALID,1002.76,VALID,0,VALID,84.3449,VALID,0,VALID,25.3974,VALID,282,VALID,0.643359,
2009-02-19, 02:05:04,VALID,1002.75,VALID,0,VALID,83.9635,VALID,0,VALID,25.4169,VALID,342,VALID,0.981641,
2009-02-19, 02:06:04,VALID,1002.72,VALID,0,VALID,83.6659,VALID,0,VALID,25.4558,VALID,337,VALID,0.826172,
2009-02-19, 02:07:04,VALID,1002.71,VALID,0,VALID,83.582,VALID,0,VALID,25.4948,VALID,325,VALID,1.19648,
2009-02-19, 02:08:04,VALID,1002.72,VALID,0,VALID,83.4752,VALID,0,VALID,25.5123,VALID,342,VALID,0.563281,
2009-02-19, 02:09:04,VALID,1002.67,VALID,0,VALID,83.3989,VALID,0,VALID,25.5337,VALID,347,VALID,0.684766,
2009-02-19, 02:10:04,VALID,1002.7,VALID,0,VALID,82.9488,VALID,0,VALID,25.5337,VALID,348,VALID,1.24492,
2009-02-19, 02:11:04,VALID,1002.7,VALID,0,VALID,83.1395,VALID,0,VALID,25.5532,VALID,335,VALID,0.765625,
2009-02-19, 02:12:04,VALID,1002.73,VALID,0,VALID,83.1014,VALID,0,VALID,25.5941,VALID,295,VALID,0.756641,
2009-02-19, 02:13:04,VALID,1002.7,VALID,0,VALID,82.2241,VALID,0,VALID,25.5727,VALID,357,VALID,1.63633,
2009-02-19, 02:14:04,VALID,1002.72,VALID,0,VALID,82.3614,VALID,0,VALID,25.6311,VALID,5,VALID,0.758594,
2009-02-19, 02:15:04,VALID,1002.73,VALID,0,VALID,82.2622,VALID,0,VALID,25.6311,VALID,327,VALID,0.844141,
2009-02-19, 02:16:04,VALID,1002.72,VALID,0,VALID,82.2622,VALID,0,VALID,25.6311,VALID,350,VALID,0.673047,
2009-02-19, 02:17:04,VALID,1002.7,VALID,0,VALID,82.041,VALID,0,VALID,25.6116,VALID,345,VALID,0.688672,
2009-02-19, 02:18:04,VALID,1002.72,VALID,0,VALID,81.9265,VALID,0,VALID,25.5921,VALID,325,VALID,1.08359,
2009-02-19, 02:19:04,VALID,1002.7,VALID,0,VALID,81.9723,VALID,0,VALID,25.633,VALID,359,VALID,1.01016,
2009-02-19, 02:20:04,VALID,1002.69,VALID,0,VALID,82.0486,VALID,0,VALID,25.6116,VALID,351,VALID,0.655078,
2009-02-19, 02:21:04,VALID,1002.71,VALID,0,VALID,81.7511,VALID,0,VALID,25.5921,VALID,344,VALID,0.822266,
2009-02-19, 02:22:04,VALID,1002.67,VALID,0,VALID,81.7206,VALID,0,VALID,25.5921,VALID,351,VALID,0.667969,
2009-02-19, 02:23:04,VALID,1002.66,VALID,0,VALID,81.5756,VALID,0,VALID,25.5921,VALID,3,VALID,0.670313,
2009-02-19, 02:24:04,VALID,1002.67,VALID,0,VALID,81.4993,VALID,0,VALID,25.5727,VALID,341,VALID,1.0418,
2009-02-19, 02:25:04,VALID,1002.66,VALID,0,VALID,81.4536,VALID,0,VALID,25.5727,VALID,357,VALID,1.23398,
2009-02-19, 02:26:04,VALID,1002.63,VALID,0,VALID,81.507,VALID,0,VALID,25.5727,VALID,347,VALID,1.48008,
2009-02-19, 02:27:04,VALID,1002.62,VALID,0,VALID,81.6672,VALID,0,VALID,25.5727,VALID,347,VALID,0.65,
2009-02-19, 02:28:04,VALID,1002.59,VALID,0,VALID,81.6138,VALID,0,VALID,25.5746,VALID,352,VALID,0.958984,
2009-02-19, 02:29:04,VALID,1002.58,VALID,0,VALID,81.6519,VALID,0,VALID,25.5532,VALID,330,VALID,0.609766,
2009-02-19, 02:30:04,VALID,1002.56,VALID,0,VALID,81.4612,VALID,0,VALID,25.5532,VALID,344,VALID,1.16875,
2009-02-19, 02:31:04,VALID,1002.56,VALID,0,VALID,81.5604,VALID,0,VALID,25.5727,VALID,344,VALID,0.399609,
2009-02-19, 02:32:04,VALID,1002.54,VALID,0,VALID,81.7587,VALID,0,VALID,25.5727,VALID,350,VALID,0.7375,
2009-02-19, 02:33:04,VALID,1002.54,VALID,0,VALID,81.7587,VALID,0,VALID,25.5941,VALID,358,VALID,0.605469,
2009-02-19, 02:34:04,VALID,1002.57,VALID,0,VALID,81.774,VALID,0,VALID,25.5532,VALID,1,VALID,1.18867,
2009-02-19, 02:35:04,VALID,1002.57,VALID,0,VALID,81.4307,VALID,0,VALID,25.5727,VALID,358,VALID,1.10703,
2009-02-19, 02:36:04,VALID,1002.56,VALID,0,VALID,81.5146,VALID,0,VALID,25.5921,VALID,346,VALID,0.832422,
2009-02-19, 02:37:04,VALID,1002.56,VALID,0,VALID,81.4383,VALID,0,VALID,25.5921,VALID,322,VALID,0.935156,
2009-02-19, 02:38:04,VALID,1002.58,VALID,0,VALID,81.4307,VALID,0,VALID,25.5921,VALID,352,VALID,1.07266,
2009-02-19, 02:39:04,VALID,1002.56,VALID,0,VALID,81.5756,VALID,0,VALID,25.5727,VALID,356,VALID,0.407422,
2009-02-19, 02:40:04,VALID,1002.58,VALID,0,VALID,81.7892,VALID,0,VALID,25.5727,VALID,332,VALID,0.419922,
2009-02-19, 02:41:04,VALID,1002.57,VALID,0,VALID,81.7129,VALID,0,VALID,25.5532,VALID,5,VALID,1.17969,
2009-02-19, 02:42:04,VALID,1002.56,VALID,0,VALID,81.5985,VALID,0,VALID,25.5337,VALID,352,VALID,1.28437,
2009-02-19, 02:43:04,VALID,1002.54,VALID,0,VALID,81.7435,VALID,0,VALID,25.5532,VALID,355,VALID,1.19023,
2009-02-19, 02:44:04,VALID,1002.52,VALID,0,VALID,81.896,VALID,0,VALID,25.5337,VALID,332,VALID,0.522266,
2009-02-19, 02:45:04,VALID,1002.49,VALID,0,VALID,81.9342,VALID,0,VALID,25.4948,VALID,343,VALID,1.14336,
2009-02-19, 02:46:04,VALID,1002.48,VALID,0,VALID,82.0791,VALID,0,VALID,25.4967,VALID,339,VALID,0.766406,
2009-02-19, 02:47:04,VALID,1002.48,VALID,0,VALID,82.1478,VALID,0,VALID,25.4558,VALID,351,VALID,0.744141,
2009-02-19, 02:48:04,VALID,1002.48,VALID,0,VALID,82.0944,VALID,0,VALID,25.4149,VALID,4,VALID,1.29492,
2009-02-19, 02:49:04,VALID,1002.44,VALID,0,VALID,82.1249,VALID,0,VALID,25.4363,VALID,347,VALID,0.714063,
2009-02-19, 02:50:04,VALID,1002.43,VALID,0,VALID,82.2012,VALID,0,VALID,25.4169,VALID,343,VALID,0.709375,
2009-02-19, 02:51:04,VALID,1002.44,VALID,0,VALID,82.3309,VALID,0,VALID,25.4169,VALID,360,VALID,0.851172,
2009-02-19, 02:52:04,VALID,1002.42,VALID,0,VALID,81.8884,VALID,0,VALID,25.376,VALID,357,VALID,1.85391,
2009-02-19, 02:53:04,VALID,1002.41,VALID,0,VALID,81.9723,VALID,0,VALID,25.4383,VALID,356,VALID,0.869141,
2009-02-19, 02:54:04,VALID,1002.37,VALID,0,VALID,82.0944,VALID,0,VALID,25.4363,VALID,356,VALID,0.765234,
2009-02-19, 02:55:04,VALID,1002.36,VALID,0,VALID,82.0105,VALID,0,VALID,25.4169,VALID,339,VALID,0.853516,
2009-02-19, 02:56:04,VALID,1002.37,VALID,0,VALID,82.0105,VALID,0,VALID,25.3974,VALID,357,VALID,0.827734,
2009-02-19, 02:57:05,VALID,1002.32,VALID,0,VALID,81.8884,VALID,0,VALID,25.4169,VALID,28,VALID,0.862891,
2009-02-19, 02:58:05,VALID,1002.33,VALID,0,VALID,81.5832,VALID,0,VALID,25.4169,VALID,17,VALID,1.1668,
2009-02-19, 02:59:05,VALID,1002.33,VALID,0,VALID,81.5298,VALID,0,VALID,25.4363,VALID,352,VALID,1.20156,
2009-02-19, 03:00:05,VALID,1002.3,VALID,0,VALID,81.4917,VALID,0,VALID,25.4558,VALID,349,VALID,0.426172,
2009-02-19, 03:01:05,VALID,1002.3,VALID,0,VALID,81.3239,VALID,0,VALID,25.4577,VALID,339,VALID,1.03281,
2009-02-19, 03:02:05,VALID,1002.29,VALID,0,VALID,81.3849,VALID,0,VALID,25.4558,VALID,353,VALID,0.670313,
2009-02-19, 03:03:05,VALID,1002.31,VALID,0,VALID,81.4078,VALID,0,VALID,25.4363,VALID,338,VALID,1.35312,
2009-02-19, 03:04:05,VALID,1002.28,VALID,0,VALID,81.5985,VALID,0,VALID,25.4169,VALID,333,VALID,0.612109,
2009-02-19, 03:05:05,VALID,1002.28,VALID,0,VALID,81.4383,VALID,0,VALID,25.4363,VALID,356,VALID,1.45586,
2009-02-19, 03:06:05,VALID,1002.3,VALID,0,VALID,81.5527,VALID,0,VALID,25.4363,VALID,352,VALID,1.02773,
2009-02-19, 03:07:05,VALID,1002.29,VALID,0,VALID,81.5832,VALID,0,VALID,25.4169,VALID,326,VALID,0.821484,
2009-02-19, 03:08:05,VALID,1002.32,VALID,0,VALID,81.7816,VALID,0,VALID,25.4188,VALID,356,VALID,0.998828,
2009-02-19, 03:09:05,VALID,1002.31,VALID,0,VALID,81.8884,VALID,0,VALID,25.3584,VALID,348,VALID,0.739844,
2009-02-19, 03:10:05,VALID,1002.3,VALID,0,VALID,82.1325,VALID,0,VALID,25.339,VALID,267,VALID,0.5875,
2009-02-19, 03:11:05,VALID,1002.29,VALID,0,VALID,81.9799,VALID,0,VALID,25.339,VALID,2,VALID,0.685547,
2009-02-19, 03:12:05,VALID,1002.3,VALID,0,VALID,82.102,VALID,0,VALID,25.3604,VALID,340,VALID,0.376953,
2009-02-19, 03:13:05,VALID,1002.26,VALID,0,VALID,82.102,VALID,0,VALID,25.3195,VALID,359,VALID,1.15313,
2009-02-19, 03:14:05,VALID,1002.27,VALID,0,VALID,81.8884,VALID,0,VALID,25.3409,VALID,5,VALID,1.11289,
2009-02-19, 03:15:05,VALID,1002.23,VALID,0,VALID,81.8655,VALID,0,VALID,25.3604,VALID,324,VALID,1.0207,
2009-02-19, 03:16:05,VALID,1002.23,VALID,0,VALID,81.774,VALID,0,VALID,25.3604,VALID,353,VALID,1.08203,
2009-02-19, 03:17:05,VALID,1002.23,VALID,0,VALID,81.9418,VALID,0,VALID,25.3195,VALID,354,VALID,1.15859,
2009-02-19, 03:18:05,VALID,1002.24,VALID,0,VALID,82.0028,VALID,0,VALID,25.3214,VALID,21,VALID,1.01797,
2009-02-19, 03:19:05,VALID,1002.22,VALID,0,VALID,82.102,VALID,0,VALID,25.3019,VALID,327,VALID,0.378125,
2009-02-19, 03:20:05,VALID,1002.24,VALID,0,VALID,82.0868,VALID,0,VALID,25.2611,VALID,352,VALID,1.1543,
2009-02-19, 03:21:05,VALID,1002.25,VALID,0,VALID,82.102,VALID,0,VALID,25.2416,VALID,348,VALID,1.03711,
2009-02-19, 03:22:05,VALID,1002.26,VALID,0,VALID,82.2088,VALID,0,VALID,25.2611,VALID,340,VALID,0.569531,
2009-02-19, 03:23:05,VALID,1002.28,VALID,0,VALID,82.3156,VALID,0,VALID,25.263,VALID,350,VALID,0.490625,
2009-02-19, 03:24:05,VALID,1002.25,VALID,0,VALID,82.3309,VALID,0,VALID,25.2027,VALID,353,VALID,0.675,
2009-02-19, 03:25:05,VALID,1002.29,VALID,0,VALID,82.5216,VALID,0,VALID,25.1813,VALID,348,VALID,0.45,
2009-02-19, 03:26:05,VALID,1002.29,VALID,0,VALID,82.4606,VALID,0,VALID,25.1442,VALID,339,VALID,0.891016,
2009-02-19, 03:27:05,VALID,1002.28,VALID,0,VALID,82.5369,VALID,0,VALID,25.1656,VALID,352,VALID,0.819922,
2009-02-19, 03:28:05,VALID,1002.28,VALID,0,VALID,82.5826,VALID,0,VALID,25.1442,VALID,349,VALID,0.596875,
2009-02-19, 03:29:05,VALID,1002.3,VALID,0,VALID,82.0715,VALID,0,VALID,25.2027,VALID,353,VALID,1.30859,
2009-02-19, 03:30:05,VALID,1002.26,VALID,0,VALID,81.7435,VALID,0,VALID,25.2397,VALID,341,VALID,1.32461,
2009-02-19, 03:31:05,VALID,1002.27,VALID,0,VALID,81.5298,VALID,0,VALID,25.3,VALID,347,VALID,1.01914,
2009-02-19, 03:32:05,VALID,1002.25,VALID,0,VALID,81.4917,VALID,0,VALID,25.3195,VALID,357,VALID,1.41523,
2009-02-19, 03:33:05,VALID,1002.25,VALID,0,VALID,81.4383,VALID,0,VALID,25.339,VALID,337,VALID,0.758984,
2009-02-19, 03:34:05,VALID,1002.27,VALID,0,VALID,81.362,VALID,0,VALID,25.339,VALID,340,VALID,0.514453,
2009-02-19, 03:35:05,VALID,1002.28,VALID,0,VALID,80.6907,VALID,0,VALID,25.3974,VALID,330,VALID,1.24531,
2009-02-19, 03:36:05,VALID,1002.29,VALID,0,VALID,80.5533,VALID,0,VALID,25.4558,VALID,327,VALID,0.932813,
2009-02-19, 03:37:05,VALID,1002.28,VALID,0,VALID,80.3016,VALID,0,VALID,25.4928,VALID,352,VALID,1.08477,
2009-02-19, 03:38:05,VALID,1002.27,VALID,0,VALID,80.2329,VALID,0,VALID,25.5142,VALID,57,VALID,0.563672,
2009-02-19, 03:39:05,VALID,1002.26,VALID,0,VALID,80.1948,VALID,0,VALID,25.5337,VALID,351,VALID,0.470313,
2009-02-19, 03:40:05,VALID,1002.3,VALID,0,VALID,80.1338,VALID,0,VALID,25.5142,VALID,359,VALID,1.21094,
2009-02-19, 03:41:05,VALID,1002.25,VALID,0,VALID,80.3474,VALID,0,VALID,25.4948,VALID,358,VALID,0.668359,
2009-02-19, 03:42:05,VALID,1002.29,VALID,0,VALID,79.7905,VALID,0,VALID,25.5142,VALID,15,VALID,1.55156,
2009-02-19, 03:43:05,VALID,1002.33,VALID,0,VALID,79.9278,VALID,0,VALID,25.5142,VALID,357,VALID,0.965234,
2009-02-19, 03:44:05,VALID,1002.33,VALID,0,VALID,80.1414,VALID,0,VALID,25.5532,VALID,20,VALID,1.15742,
2009-02-19, 03:45:05,VALID,1002.34,VALID,0,VALID,79.7447,VALID,0,VALID,25.5142,VALID,6,VALID,0.880078,